sat.trackr.live / text

‹ back to catalog

STARLINK-30522

NORAD 58008 · 2023-153T

PAYLOAD ACTIVE UNKNOWN

§ Identity

Operator
Country
US
Launch date
2023-10-05
Launch site
AFETR
Launch vehicle
Mass (kg)
RCS (m²)

Purposes: comms

External: N2YO · Heavens-Above · Gunter

§ Orbital elements

Epoch: 2026-09-20T20:57:41.503392Z

Period
94.27 min
Inclination
43.0027°
Eccentricity
0.0001519
Mean motion
15.27577926 rev/d
Perigee alt
482.0 km
Apogee alt
484.1 km
Semi-major
6,861.2 km
B*
5.1673e-5
RAAN
45.0528°
Arg perigee
287.1726°
Mean anomaly
72.8960°
Rev number
16,474

§ Raw data

STARLINK-305221 58008U 23153T   26263.87339703  .00001160  00000+0  51673-4 0  99972 58008  43.0027  45.0528 0001519 287.1726  72.8960 15.27577926164747

JSON: /api/v1/satellites/58008 · /tle

For live sub-satellite position, see the globe view (requires WebGL).

§ Visibility from observer

Set your observer location to see the next 7 days of passes ≥ 10°. The values pass through the URL so the page stays shareable.

No JS? Fill the form by hand. The geolocation button needs JavaScript.